SES-3

Last updated on Wed Sep 09 2026 00:02:59 GMT+0000 (Coordinated Universal Time)

1 37748U 11035A 26251.49596216 -.00000122 00000+0 00000+0 0 9991 2 37748 1.5359 82.0288 0002505 108.6439 232.4308 1.00271324 55423
UTC large
Height (km)
Speed (km/s)
/
Latitude / Longitude
Inclination (degrees)
Orbital Period (minutes)
Azimuth
Elevation
Range (km)
Doppler Factor

Next 0 passes for location: London (51.5072 / 0.1276)

No passes found over London.
SES-3